User: anonymous   Login
Location: Cisewo
(53.3833°N, 14.9000°E)
Time: 04:03:57
(UTC+00:00)
Language:

COSMOS 2455 - Orbit

View from above orbital plane
View from above orbital plane
View from above satellite
View from above satellite

Ground track
Ground track

The orbit data is extracted from the following two-line orbital elements,

1 36095U 09063A   21164.87247791 -.00000051  00000-0  17558-4 0  9997
2 36095  67.1489  20.5874 0003693 286.7830  73.2850 13.96769712589649
Epoch (UTC): 13 June 2021 20:56:22
Eccentricity: 0.0003693
inclination: 67.1489°
perigee height: 902 km
apogee height: 907 km
right ascension of ascending node: 20.5874°
argument of perigee: 286.7830°
revolutions per day: 13.96769712
mean anomaly at epoch: 73.2850°
orbit number at epoch: 58964

The dashed part of the orbit path shows where the satellite is in the earth's shadow,  

DLR